Regional Weather Roundup
Issued by NWS

Home | Current Version | Previous Version | Graphics & Text | Print | Product List | Glossary On
Versions: 1 2 3 4 5 6 7 8 9 10 11 12 13 14 15 16 17 18 19 20 21 22 23 24 25 26 27 28 29 30 31 32 33 34 35 36 37 38 39 40 41 42 43 44 45 46 47 48 49 50
000
ASUS43 KLMK 210110
RWRKY
KENTUCKY REGIONAL WEATHER ROUNDUP
NATIONAL WEATHER SERVICE LOUISVILLE KY
900 PM EDT THU JUL 20 2017

NOTE "FAIR" INDICATES FEW OR NO CLOUDS BELOW 12,000 FEET
WITH NO SIGNIFICANT WEATHER AND/OR OBSTRUCTIONS TO VISIBILITY.

KYZ001>023-026-027-061>063-070>075-210200-
WESTERN AND SOUTH CENTRAL KENTUCKY

CITY           SKY/WX    TMP DP  RH WIND       PRES   REMARKS
PADUCAH        CLOUDY    87  75  67 S5        29.99F HX  96
HENDERSON      CLEAR     83  75  77 SW5       29.99S HX  90
OWENSBORO      CLEAR     83  76  79 S6        30.00R HX  91
HOPKINSVILLE   PTCLDY    86  76  72 SW5       30.02S HX  96
BOWLING GREEN  CLEAR     88  74  63 W5        30.02S HX  96
GLASGOW        CLEAR     84  73  69 CALM      30.04R
$$

KYZ024-025-028>034-038-045-046-053-210200-
NORTH CENTRAL KENTUCKY

CITY           SKY/WX    TMP DP  RH WIND       PRES   REMARKS
LOUISVILLE/SDF PTCLDY    88  72  58 SW6       30.00R HX  94
LOUISVILLE/LOU CLEAR     87  73  62 SW8       30.01R HX  94
FORT KNOX      MOCLDY    84  73  69 CALM      30.01R
$$

KYZ035>037-039>044-047>052-055>060-089>105-210200-
NORTHEAST KENTUCKY

CITY           SKY/WX    TMP DP  RH WIND       PRES   REMARKS
LEXINGTON      CLOUDY    84  72  67 W5        30.04R
COVINGTON      MOCLDY    85  73  67 SW5       30.01R HX  91
FRANKFORT      CLEAR     84  73  69 SW3       30.02R HX  90
$$

KYZ054-064>069-076>088-106>120-210200-
SOUTHEAST KENTUCKY

CITY           SKY/WX    TMP DP  RH WIND       PRES   REMARKS
JACKSON        CLOUDY    82  70  66 CALM      30.07R
LONDON         CLOUDY    83  71  67 NW3       30.06S
SOMERSET       CLOUDY    82  70  65 CALM      30.07R
MIDDLESBORO    CLOUDY    79  71  75 CALM      30.07S
MONTICELLO     PTCLDY    79  77  94 VRB6      30.07S
$$





USA.gov is the U.S. government's official web portal to all federal, state and local government web resources and services.